Location: Aula-Vintri
(58.3875°N, 22.4322°E)
Time: 15:47:31
(UTC+00:00)

Cosmos 2278 Rocket - Pass Details

Date: 13 October 2019
Orbit: 840 x 847 km, 71.0° (Epoch: 12 November)

Event Time Altitude Azimuth Distance (km) Brightness Sun altitude
Exits shadow 22:31:40 23° 339° (NNW) 1,735 4.2 -39.5°
Maximum altitude 22:32:28 24° 352° (N) 1,705 4.2 -39.5°
Drops below altitude 10° 22:37:01 10° 45° (NE) 2,483 5.1 -39.4°
Sets 22:39:59 0° 60° (ENE) 3,419 5.8 -39.3°
